CW3996 Weather Reports


Display with metric or nautical units.
time (UTC)temp
F
wind
direction
speed
MPH
gust
MPH
rain 1hr
in
rain 24hr
in
rain mn
in
humidity
%
barometer
mb
20260831231228 60 158 3.0 7.0 0.03 0.39 0.39 66 1023.2
20260831230721 60 158 5.0 8.0 0.02 0.38 0.38 66 1023.1
20260831230216 60 158 6.0 8.0 0.02 0.38 0.38 66 1023.0
20260831225730 60 159 5.0 9.0 0.01 0.37 0.37 66 1022.9
20260831225223 60 177 1.0 6.0 0.01 0.37 0.37 65 1022.9
20260831224717 60 177 1.0 6.0 0.00 0.36 0.36 65 1022.8
20260831224232 60 177 4.0 6.0 0.01 0.36 0.36 65 1022.6
20260831223725 60 178 2.0 5.0 0.03 0.36 0.36 63 1022.6
20260831223218 60 177 3.0 6.0 0.04 0.36 0.36 62 1022.6
20260831222736 60 177 4.0 6.0 0.06 0.36 0.36 63 1022.5
20260831222249 60 178 3.0 7.0 0.10 0.36 0.36 65 1022.4
20260831221742 59 177 3.0 7.0 0.13 0.36 0.36 65 1022.3
20260831221235 59 178 4.0 7.0 0.15 0.36 0.36 65 1022.3
20260831220728 60 184 4.0 6.0 0.16 0.36 0.36 63 1022.4
20260831220223 60 194 2.0 12.0 0.20 0.36 0.36 62 1022.7
20260831215716 59 194 4.0 12.0 0.35 0.36 0.36 63 1022.4
20260831215251 59 145 8.0 12.0 0.36 0.36 0.36 66 1022.2
20260831214724 59 124 6.0 14.0 0.36 0.36 0.36 66 1022.2
20260831214219 58 99 8.0 14.0 0.34 0.34 0.34 65 1021.7
20260831213717 59 138 6.0 10.0 0.33 0.33 0.33 64 1021.8
20260831213231 59 181 4.0 17.0 0.32 0.32 0.32 63 1021.9
20260831212725 59 190 6.0 26.0 0.30 0.30 0.30 61 1021.6
20260831212219 60 205 15.0 26.0 0.26 0.26 0.26 60 1021.6
20260831211732 60 200 14.0 28.0 0.23 0.23 0.23 60 1021.5
20260831211227 61 205 13.0 27.0 0.21 0.21 0.21 57 1020.7
20260831210720 61 234 16.0 32.0 0.20 0.20 0.20 56 1020.7
20260831210236 64 191 14.0 32.0 0.16 0.16 0.16 51 1020.6
20260831205749 69 205 16.0 29.0 0.01 0.01 0.01 43 1020.0
20260831205225 71 231 19.0 29.0 0.00 0.00 0.00 35 1019.2
20260831204719 74 211 17.0 28.0 0.00 0.00 0.00 30 1018.4
20260831204234 79 227 7.0 17.0 0.00 0.00 0.00 22 1018.0
20260831203727 80 131 10.0 12.0 0.00 0.00 0.00 22 1017.0
20260831203221 80 123 7.0 12.0 0.00 0.00 0.00 23 1016.9
20260831202715 79 100 5.0 15.0 0.00 0.00 0.00 24 1016.7
20260831202249 80 108 7.0 19.0 0.00 0.00 0.00 24 1016.7
20260831201722 81 131 13.0 19.0 0.00 0.00 0.00 23 1016.7
20260831201220 81 134 12.0 18.0 0.00 0.00 0.00 22 1016.9
20260831200714 82 141 10.0 19.0 0.00 0.00 0.00 22 1017.2
20260831200229 82 127 11.0 22.0 0.00 0.00 0.00 22 1017.4
20260831195722 82 137 12.0 24.0 0.00 0.00 0.00 22 1017.6
20260831195217 85 136 13.0 24.0 0.00 0.00 0.00 21 1017.6
20260831194732 86 211 6.0 14.0 0.00 0.00 0.00 17 1017.4
20260831194226 85 221 6.0 9.0 0.00 0.00 0.00 17 1017.4
20260831193720 83 223 4.0 8.0 0.00 0.00 0.00 18 1017.4
20260831193218 82 222 1.0 8.0 0.00 0.00 0.00 19 1017.5
20260831192732 82 222 6.0 8.0 0.00 0.00 0.00 20 1017.6
20260831192226 82 222 4.0 8.0 0.00 0.00 0.00 21 1017.9
20260831191740 82 222 5.0 10.0 0.00 0.00 0.00 20 1018.1
20260831191233 82 222 6.0 10.0 0.00 0.00 0.00 20 1018.0
20260831190726 82 221 6.0 11.0 0.00 0.00 0.00 20 1018.2
20260831190222 82 221 6.0 11.0 0.00 0.00 0.00 21 1018.3
20260831185715 83 221 7.0 10.0 0.00 0.00 0.00 20 1018.2
20260831185250 83 221 6.0 10.0 0.00 0.00 0.00 20 1018.2
20260831184726 84 221 4.0 14.0 0.00 0.00 0.00 18 1018.3
20260831184221 84 221 8.0 14.0 0.00 0.00 0.00 19 1018.3
20260831183715 83 219 7.0 14.0 0.00 0.00 0.00 19 1018.3
20260831183230 83 219 6.0 14.0 0.00 0.00 0.00 18 1018.5
20260831182723 84 215 8.0 12.0 0.00 0.00 0.00 18 1018.5
20260831182217 84 215 8.0 12.0 0.00 0.00 0.00 18 1018.6
20260831181731 85 215 9.0 12.0 0.00 0.00 0.00 16 1018.7
20260831181229 84 213 7.0 12.0 0.00 0.00 0.00 18 1018.8
20260831180743 83 218 6.0 17.0 0.00 0.00 0.00 19 1018.8
20260831180218 83 221 10.0 17.0 0.00 0.00 0.00 18 1018.8
20260831175731 84 225 7.0 16.0 0.00 0.00 0.00 19 1018.9
20260831175225 84 218 8.0 16.0 0.00 0.00 0.00 19 1019.0
20260831174719 83 209 9.0 12.0 0.00 0.00 0.00 18 1019.0
20260831174253 83 207 7.0 14.0 0.00 0.00 0.00 19 1019.1
20260831173726 83 198 10.0 14.0 0.00 0.00 0.00 19 1019.1
20260831173240 82 209 7.0 13.0 0.00 0.00 0.00 20 1019.1
20260831172717 81 207 9.0 13.0 0.00 0.00 0.00 21 1019.2
20260831172232 82 215 10.0 16.0 0.00 0.00 0.00 20 1019.3
20260831171725 82 215 9.0 16.0 0.00 0.00 0.00 21 1019.3
20260831171219 80 202 6.0 15.0 0.00 0.00 0.00 23 1019.3
20260831170733 80 202 7.0 15.0 0.00 0.00 0.00 22 1019.5
20260831170228 82 292 9.0 13.0 0.00 0.00 0.00 22 1019.5
20260831165216 79 30 5.0 9.0 0.00 0.00 0.00 27 1019.4
20260831164735 79 30 5.0 10.0 0.00 0.00 0.00 29 1019.5
20260831164228 78 37 5.0 10.0 0.00 0.00 0.00 29 1019.5
20260831163721 78 46 5.0 6.0 0.00 0.00 0.00 32 1019.4
20260831163236 77 46 3.0 6.0 0.00 0.00 0.00 32 1019.4
20260831162728 77 46 3.0 6.0 0.00 0.00 0.00 34 1019.3
20260831162222 76 46 3.0 6.0 0.00 0.00 0.00 35 1019.3
20260831161716 76 47 2.0 4.0 0.00 0.00 0.00 33 1019.3
20260831161231 76 47 2.0 5.0 0.00 0.00 0.00 34 1019.3
20260831160724 75 47 3.0 5.0 0.00 0.00 0.00 34 1019.2
20260831160223 74 47 1.0 5.0 0.00 0.00 0.00 36 1019.2
20260831155717 74 47 4.0 5.0 0.00 0.00 0.00 33 1019.1
20260831155251 74 47 1.0 5.0 0.00 0.00 0.00 34 1019.1
20260831154724 74 47 1.0 3.0 0.00 0.00 0.00 35 1019.1
20260831154218 74 47 2.0 4.0 0.00 0.00 0.00 35 1019.0
20260831153732 73 47 2.0 4.0 0.00 0.00 0.00 35 1019.0
20260831153225 73 47 2.0 4.0 0.00 0.00 0.00 37 1019.0
20260831152719 73 47 1.0 4.0 0.00 0.00 0.00 35 1019.0
20260831152232 73 47 2.0 4.0 0.00 0.00 0.00 36 1018.8
20260831151725 73 49 1.0 4.0 0.00 0.00 0.00 37 1018.9
20260831151224 73 49 2.0 4.0 0.00 0.00 0.00 35 1018.8
20260831150737 73 49 2.0 4.0 0.00 0.00 0.00 34 1018.8
20260831150232 72 49 1.0 3.0 0.00 0.00 0.00 33 1018.7
20260831145745 72 49 1.0 3.0 0.00 0.00 0.00 35 1018.7
20260831145239 72 49 1.0 2.0 0.00 0.00 0.00 37 1018.7
20260831144732 72 49 1.0 2.0 0.00 0.00 0.00 36 1018.6
20260831144225 71 49 0.0 1.0 0.00 0.00 0.00 36 1018.6
20260831143719 71 49 0.0 0.0 0.00 0.00 0.00 35 1018.7
20260831143232 70 49 0.0 0.0 0.00 0.00 0.00 39 1018.7
20260831142725 70 49 0.0 0.0 0.00 0.00 0.00 43 1018.7
20260831142224 69 49 0.0 0.0 0.00 0.00 0.00 42 1018.7
20260831141738 68 49 0.0 2.0 0.00 0.00 0.00 45 1018.7
20260831141231 67 49 0.0 2.0 0.00 0.00 0.00 49 1018.6
20260831140724 66 49 2.0 2.0 0.00 0.00 0.00 49 1018.6
20260831140219 64 49 1.0 3.0 0.00 0.00 0.00 53 1018.6
20260831135732 64 49 1.0 3.0 0.00 0.00 0.00 52 1018.5
20260831135225 64 49 2.0 4.0 0.00 0.00 0.00 52 1018.5
20260831134739 63 92 3.0 4.0 0.00 0.00 0.00 54 1018.5
20260831134232 63 92 0.0 3.0 0.00 0.00 0.00 53 1018.4
20260831133726 63 92 1.0 4.0 0.00 0.00 0.00 53 1018.3
20260831133224 64 92 2.0 4.0 0.00 0.00 0.00 51 1018.2
20260831132717 63 92 2.0 4.0 0.00 0.00 0.00 53 1018.2
20260831132232 63 92 3.0 4.0 0.00 0.00 0.00 54 1018.2
20260831131745 63 92 3.0 3.0 0.00 0.00 0.00 52 1018.1
20260831131218 63 92 1.0 4.0 0.00 0.00 0.00 54 1018.1
20260831130752 63 92 2.0 4.0 0.00 0.00 0.00 51 1018.1
20260831130226 62 92 3.0 4.0 0.00 0.00 0.00 54 1018.0
20260831125719 62 92 3.0 4.0 0.00 0.00 0.00 56 1017.9
20260831125217 62 92 2.0 4.0 0.00 0.00 0.00 57 1017.9
20260831124732 61 92 2.0 3.0 0.00 0.00 0.00 58 1017.8
20260831124226 61 92 2.0 2.0 0.00 0.00 0.00 58 1017.8
20260831123741 61 92 2.0 2.0 0.00 0.00 0.00 59 1017.7
20260831123214 61 92 1.0 2.0 0.00 0.00 0.00 60 1017.6
20260831122728 61 92 1.0 2.0 0.00 0.00 0.00 60 1017.6
20260831122242 62 92 0.0 2.0 0.00 0.00 0.00 58 1017.7
20260831121715 63 92 1.0 3.0 0.00 0.00 0.00 57 1017.6
20260831121229 63 92 2.0 3.0 0.00 0.00 0.00 57 1017.6
20260831120727 63 92 1.0 3.0 0.00 0.00 0.00 55 1017.7
20260831120222 63 92 2.0 3.0 0.00 0.00 0.00 56 1017.6
20260831115716 63 92 1.0 3.0 0.00 0.00 0.00 58 1017.7
20260831115230 63 92 2.0 3.0 0.00 0.00 0.00 58 1017.8
20260831114723 63 92 1.0 3.0 0.00 0.00 0.00 57 1017.7
20260831114218 63 92 2.0 3.0 0.00 0.00 0.00 58 1017.7
20260831113731 63 92 0.0 4.0 0.00 0.00 0.00 58 1017.7
20260831113225 63 92 2.0 4.0 0.00 0.00 0.00 58 1017.7
20260831112739 63 92 2.0 3.0 0.00 0.00 0.00 58 1017.7
20260831112236 64 92 3.0 3.0 0.00 0.00 0.00 56 1017.7
20260831111729 64 92 1.0 4.0 0.00 0.00 0.00 55 1017.7
20260831111223 65 92 1.0 4.0 0.00 0.00 0.00 52 1017.7
20260831110716 65 92 3.0 3.0 0.00 0.00 0.00 49 1017.7
20260831110232 65 92 2.0 3.0 0.00 0.00 0.00 50 1017.8
20260831105745 64 92 1.0 2.0 0.00 0.00 0.00 52 1017.6
20260831105219 64 92 0.0 1.0 0.00 0.00 0.00 52 1017.6
20260831104733 64 92 0.0 3.0 0.00 0.00 0.00 51 1017.6
20260831104227 65 92 1.0 3.0 0.00 0.00 0.00 51 1017.6
20260831103745 65 92 0.0 3.0 0.00 0.00 0.00 51 1017.7
20260831103218 65 92 1.0 3.0 0.00 0.00 0.00 49 1017.7
20260831102752 66 92 1.0 3.0 0.00 0.00 0.00 47 1017.7
20260831102225 66 92 1.0 2.0 0.00 0.00 0.00 45 1017.7
20260831101718 66 92 0.0 2.0 0.00 0.00 0.00 45 1017.7
20260831101253 67 92 0.0 3.0 0.00 0.00 0.00 40 1017.7
20260831100725 69 92 0.0 4.0 0.00 0.00 0.00 36 1017.7
20260831100220 71 92 2.0 7.0 0.00 0.00 0.00 31 1017.6
20260831095733 71 92 3.0 7.0 0.00 0.00 0.00 29 1017.6
20260831095227 71 92 4.0 7.0 0.00 0.00 0.00 29 1017.5
20260831094725 69 92 3.0 7.0 0.00 0.00 0.00 32 1017.4
20260831094218 68 92 3.0 8.0 0.00 0.00 0.00 34 1017.4
20260831093732 68 92 4.0 8.0 0.00 0.00 0.00 34 1017.4
20260831093225 68 92 3.0 6.0 0.00 0.00 0.00 34 1017.3
20260831092718 68 92 3.0 8.0 0.00 0.00 0.00 34 1017.3
20260831092233 69 92 5.0 8.0 0.00 0.00 0.00 34 1017.3
20260831091726 69 92 5.0 8.0 0.00 0.00 0.00 33 1017.2
20260831091217 69 92 5.0 10.0 0.00 0.00 0.00 34 1017.3
20260831090715 69 92 6.0 10.0 0.00 0.00 0.00 34 1017.2
20260831090231 68 92 7.0 10.0 0.00 0.00 0.00 34 1017.2
20260831085724 69 92 4.0 9.0 0.00 0.00 0.00 33 1017.1
20260831085218 69 92 6.0 10.0 0.00 0.00 0.00 32 1017.1
20260831084732 69 92 9.0 10.0 0.00 0.00 0.00 32 1017.2
20260831084246 69 92 6.0 8.0 0.00 0.00 0.00 32 1017.1
20260831083720 68 92 6.0 8.0 0.00 0.00 0.00 33 1017.1
20260831083214 69 92 5.0 7.0 0.00 0.00 0.00 33 1017.3
20260831082731 69 92 5.0 8.0 0.00 0.00 0.00 33 1017.3
20260831082225 69 92 5.0 8.0 0.00 0.00 0.00 33 1017.3
20260831081719 69 92 4.0 9.0 0.00 0.00 0.00 34 1017.3
20260831081233 70 92 6.0 10.0 0.00 0.00 0.00 33 1017.3
20260831080727 71 92 6.0 10.0 0.00 0.00 0.00 33 1017.3
20260831080221 72 92 6.0 13.0 0.00 0.00 0.00 32 1017.4
20260831075715 71 92 8.0 13.0 0.00 0.03 0.00 31 1017.4
20260831075229 71 92 6.0 14.0 0.00 0.03 0.00 33 1017.4
20260831074727 72 92 9.0 14.0 0.00 0.03 0.00 33 1017.6
20260831074221 72 89 8.0 13.0 0.00 0.03 0.00 34 1017.5
20260831073715 72 89 8.0 13.0 0.00 0.03 0.00 34 1017.5
20260831073229 72 89 7.0 14.0 0.00 0.03 0.00 32 1017.6
20260831072722 72 87 9.0 14.0 0.00 0.03 0.00 34 1017.5
20260831072237 71 84 7.0 10.0 0.00 0.03 0.00 35 1017.5
20260831071730 71 84 5.0 10.0 0.00 0.03 0.00 37 1017.5
20260831071224 71 84 7.0 10.0 0.00 0.03 0.00 36 1017.6
20260831070737 70 84 6.0 9.0 0.00 0.03 0.00 37 1017.6
20260831070235 70 84 3.0 6.0 0.00 0.03 0.00 37 1017.6
20260831065727 70 84 3.0 6.0 0.00 0.04 0.00 37 1017.6
20260831065221 70 84 3.0 8.0 0.00 0.04 0.00 39 1017.5
20260831064715 71 84 4.0 11.0 0.00 0.04 0.00 38 1017.5
20260831064229 71 84 5.0 11.0 0.00 0.04 0.00 38 1017.6
20260831063723 71 84 6.0 10.0 0.00 0.04 0.00 37 1017.5
20260831063217 72 84 6.0 10.0 0.00 0.04 0.00 38 1017.6
20260831062731 72 84 5.0 10.0 0.00 0.04 0.00 38 1017.6
20260831062229 71 84 5.0 9.0 0.00 0.04 0.00 38 1017.6
20260831061742 72 84 4.0 9.0 0.00 0.04 0.00 37 1017.6
20260831061215 72 84 5.0 10.0 0.00 0.04 0.00 36 1017.6
20260831060729 73 84 4.0 10.0 0.00 0.04 0.00 36 1017.7
20260831060225 73 84 5.0 13.0 0.00 0.04 0.00 35 1017.6
20260831055738 73 84 8.0 13.0 0.00 0.04 0.04 36 1017.6
20260831055252 73 82 7.0 13.0 0.00 0.04 0.04 36 1017.7
20260831054724 72 81 8.0 13.0 0.00 0.04 0.04 38 1017.6
20260831054238 71 69 5.0 10.0 0.00 0.04 0.04 41 1017.6
20260831053731 70 69 5.0 8.0 0.00 0.04 0.04 41 1017.6
20260831053245 70 69 4.0 6.0 0.00 0.04 0.04 41 1017.6
20260831052722 70 69 3.0 6.0 0.00 0.04 0.04 42 1017.6
20260831052216 72 69 3.0 11.0 0.00 0.04 0.04 39 1017.6
20260831051729 72 69 4.0 13.0 0.00 0.04 0.04 38 1017.6
20260831051224 72 69 8.0 13.0 0.00 0.04 0.04 38 1017.6
20260831050718 72 68 8.0 13.0 0.00 0.04 0.04 38 1017.6
20260831050233 72 57 5.0 12.0 0.00 0.04 0.04 38 1017.6
20260831045747 72 57 6.0 12.0 0.00 0.04 0.04 37 1017.6
20260831045220 73 57 6.0 12.0 0.00 0.04 0.04 36 1017.5
20260831044714 73 57 7.0 12.0 0.00 0.04 0.04 35 1017.5
20260831044248 73 57 8.0 12.0 0.00 0.04 0.04 35 1017.6
20260831043724 73 46 7.0 11.0 0.00 0.04 0.04 35 1017.6
20260831043238 74 46 6.0 10.0 0.00 0.04 0.04 35 1017.7
20260831042731 74 46 5.0 12.0 0.00 0.04 0.04 33 1017.7
20260831042225 74 46 7.0 12.0 0.00 0.04 0.04 32 1017.6
20260831041718 74 44 6.0 12.0 0.00 0.04 0.04 34 1017.6
20260831041253 74 42 7.0 12.0 0.00 0.04 0.04 34 1017.6
20260831040725 74 40 7.0 12.0 0.00 0.04 0.04 33 1017.6
20260831040220 74 35 5.0 11.0 0.00 0.04 0.04 34 1017.6
20260831035714 73 34 6.0 11.0 0.00 0.04 0.04 36 1017.5
20260831035228 72 30 4.0 9.0 0.00 0.04 0.04 39 1017.4
20260831034725 73 30 5.0 8.0 0.00 0.04 0.04 39 1017.3
20260831034219 73 30 3.0 6.0 0.00 0.04 0.04 39 1017.1
20260831033713 72 30 2.0 4.0 0.00 0.04 0.04 40 1017.0
20260831033228 73 30 2.0 6.0 0.00 0.04 0.04 38 1017.0
20260831032722 74 30 3.0 8.0 0.00 0.04 0.04 37 1016.9
20260831032216 74 30 5.0 8.0 0.00 0.04 0.04 36 1016.9
20260831031729 74 30 3.0 8.0 0.00 0.04 0.04 35 1016.9
20260831031228 73 30 3.0 8.0 0.00 0.04 0.04 36 1016.9
20260831030722 72 30 3.0 4.0 0.00 0.04 0.04 36 1016.8
20260831030217 72 30 2.0 5.0 0.00 0.04 0.04 37 1016.7
20260831025730 73 30 1.0 5.0 0.00 0.04 0.04 37 1016.7
20260831025224 74 30 4.0 6.0 0.00 0.04 0.04 33 1016.6
20260831024718 74 30 4.0 6.0 0.00 0.04 0.04 31 1016.6
20260831024232 74 30 3.0 8.0 0.00 0.04 0.04 30 1016.6
20260831023725 74 30 4.0 9.0 0.00 0.04 0.04 30 1016.5
20260831023218 75 30 5.0 9.0 0.00 0.04 0.04 29 1016.4
20260831022716 75 30 5.0 10.0 0.00 0.04 0.04 29 1016.4
20260831022231 75 30 6.0 10.0 0.00 0.04 0.04 30 1016.5
20260831021724 75 30 6.0 9.0 0.00 0.04 0.04 30 1016.4
20260831021218 75 30 4.0 9.0 0.00 0.04 0.04 30 1016.4
20260831020732 76 30 4.0 8.0 0.00 0.04 0.04 29 1016.5
20260831020227 76 30 4.0 10.0 0.00 0.04 0.04 29 1016.4
20260831015720 76 30 3.0 10.0 0.00 0.05 0.04 30 1016.4
20260831015235 77 30 5.0 10.0 0.00 0.05 0.04 30 1016.4
20260831014731 77 30 5.0 10.0 0.00 0.05 0.04 29 1016.4
20260831014245 77 30 4.0 9.0 0.00 0.05 0.04 31 1016.4
20260831013718 77 30 3.0 9.0 0.00 0.05 0.04 31 1016.4
20260831013232 77 30 4.0 9.0 0.00 0.05 0.04 32 1016.4
20260831012725 77 30 3.0 9.0 0.00 0.05 0.04 34 1016.4
20260831012219 77 30 4.0 9.0 0.00 0.05 0.04 33 1016.4
20260831011713 77 30 4.0 10.0 0.00 0.05 0.04 34 1016.5
20260831011227 77 30 5.0 10.0 0.00 0.05 0.04 34 1016.4
20260831010741 77 30 7.0 12.0 0.00 0.05 0.04 33 1016.5
20260831010220 77 30 6.0 12.0 0.00 0.05 0.04 33 1016.5
20260831005714 77 30 9.0 13.0 0.00 0.06 0.04 33 1016.5
20260831005228 77 30 9.0 13.0 0.00 0.06 0.04 34 1016.6
20260831004722 77 30 10.0 13.0 0.00 0.06 0.04 34 1016.6
20260831004216 77 30 7.0 15.0 0.00 0.06 0.04 37 1016.7
20260831003730 76 30 10.0 15.0 0.00 0.06 0.04 36 1016.7
20260831003225 77 26 11.0 15.0 0.00 0.06 0.04 35 1016.7
20260831002718 77 5 7.0 12.0 0.00 0.06 0.04 34 1016.6
20260831002236 77 5 5.0 12.0 0.00 0.06 0.04 36 1016.6
20260831001729 77 5 9.0 16.0 0.00 0.06 0.04 34 1016.6
20260831001221 77 360 7.0 16.0 0.00 0.06 0.04 32 1016.6
20260831000715 80 344 10.0 15.0 0.00 0.06 0.04 31 1016.6
20260831000230 81 5 7.0 14.0 0.00 0.06 0.04 30 1016.4
20260830235723 80 59 3.0 6.0 0.00 0.06 0.04 27 1016.4
20260830235217 81 59 3.0 6.0 0.00 0.06 0.04 27 1016.4
20260830234751 81 59 3.0 10.0 0.00 0.06 0.04 26 1016.4
20260830234223 82 59 5.0 10.0 0.00 0.06 0.04 26 1016.5
20260830233717 80 63 2.0 8.0 0.00 0.06 0.04 26 1016.5
20260830233216 80 63 4.0 8.0 0.00 0.06 0.04 29 1016.5
20260830232730 80 63 3.0 5.0 0.00 0.06 0.04 25 1016.5
20260830232224 79 63 2.0 6.0 0.00 0.06 0.04 29 1016.6
20260830231718 79 63 4.0 6.0 0.00 0.06 0.04 26 1016.6